This demonstration page uses our WeatherBlox Daily Observations layout. Learn more.

Left ArrowRight Arrow

39.92423, -83.80882

Hourly Observations for March 10, 2022

Temp ( °F °C ) Dew Point ( °F °C ) Humidity (%) Winds ( mph kmh ) Pressure ( in mb ) Visibility ( mi km ) Precip ( " mm )
12:56 am 00:56 Clear 30 -1.1 28 -2.2 92 92 Calm 30.11 1020 10 16 0.00 0.00
1:56 am 01:56 Clear 29 -1.7 28 -2.2 96 96 Calm 30.12 1020 10 16 0.00 0.00
2:56 am 02:56 Clear 27 -2.8 27 -2.8 100 100 N 5 7 30.13 1020 10 16 0.00 0.00
3:56 am 03:56 Clear 27 -2.8 25 -3.9 92 92 Calm 30.13 1020 10 16 0.00 0.00
4:56 am 04:56 Clear 26 -3.3 26 -3.3 100 100 Calm 30.15 1021 10 16 0.00 0.00
5:56 am 05:56 Clear 27 -3 N/A N/A Calm 30.17 1022 9 14 0.00 0.00
6:56 am 06:56 Hazy 27 -3 N/A N/A NE 5 7 30.18 1022 6 10 0.00 0.00
7:56 am 07:56 Sunny 28 -2.2 28 -2.2 100 100 E 5 7 30.18 1022 10 16 0.00 0.00
8:56 am 08:56 Sunny 34 1.1 30 -1.1 85 85 E 6 9 30.18 1022 10 16 0.00 0.00
9:56 am 09:56 Sunny 39 3.9 33 0.6 79 79 VRB 3 6 30.18 1022 10 16 0.00 0.00
10:56 am 10:56 Sunny 43 6.1 32 0 65 65 SSE 5 7 30.18 1022 10 16 0.00 0.00
11:56 am 11:56 Mostly Sunny 46 7.8 30 -1.1 54 54 Calm 30.16 1021 10 16 0.00 0.00
12:56 pm 12:56 Cloudy 48 8.9 30 -1.1 50 50 NW 7 11 30.15 1021 10 16 0.00 0.00
1:56 pm 13:56 Cloudy 47 8.3 31 -0.6 54 54 NNW 7 11 30.11 1020 10 16 0.00 0.00
2:56 pm 14:56 Partly Cloudy 46 7.8 30 -1.1 54 54 NNE 9 15 30.10 1019 10 16 0.00 0.00
3:56 pm 15:56 Mostly Cloudy 48 8.9 31 -0.6 52 52 VRB 5 7 30.09 1019 10 16 0.00 0.00
4:56 pm 16:56 Mostly Cloudy 48 8.9 29 -1.7 48 48 VRB 6 9 30.10 1019 10 16 0.00 0.00
5:56 pm 17:56 Mostly Sunny 46 7.8 29 -1.7 51 51 NW 6 9 30.10 1019 10 16 0.00 0.00
6:56 pm 18:56 Clear 42 5.6 28 -2.2 58 58 N 5 7 30.11 1020 10 16 0.00 0.00
7:56 pm 19:56 Clear 39 3.9 28 -2.2 65 65 ENE 3 6 30.11 1020 10 16 0.00 0.00
8:56 pm 20:56 Clear 39 3.9 27 -2.8 62 62 NNE 5 7 30.11 1020 10 16 0.00 0.00
9:56 pm 21:56 Clear 33 0.6 29 -1.7 85 85 ENE 3 6 30.11 1020 10 16 0.00 0.00
10:56 pm 22:56 Clear 32 0 30 -1.1 92 92 ENE 6 9 30.10 1019 10 16 0.00 0.00
11:56 pm 23:56 Clear 31 -0.6 30 -1.1 96 96 E 5 7 30.08 1019 10 16 0.00 0.00

Powered by AerisWeather